PulseSat

PulseSat

GSAT0206 (GALILEO 10)

Last updated on Dec. 9, 2018, 12:08 a.m. UTC

1 40890U 15045B   18342.30882902 -.00000057  00000-0  00000+0 0  9998
2 40890  56.6008 297.4008 0002419 319.9322  40.0262  1.70474593 20199
UTC
Height (km)
Latitude
Longitude
Inclination
Orbital Period

Next 30 passes for location: Hong Kong

Rise time Rise Azimuth (degrees) Set time Set Azimuth (degrees) Duration Max altitude (degrees)

No matching passes for this satellites

PulseSat

PulseSat is the new satellites software and hardware trackering solution by Pulsely.
Satellite Two Line Element Set source: US Air Force Space Command

Download PulseSat for iOS
© 2017 Pulsely Limited